Tracking 33176 objects as of 12-Feb-2026
HD Live streaming from Space Station
objects crossing your sky now

COSMOS 1275 DEB

Track COSMOS 1275 DEB now!
10-day predictions


NORAD ID: 14440
Int'l Code: 1981-053JK
Perigee: 942.6 km
Apogee: 1,111.7 km
Inclination: 82.9 °
Period: 105.5 minutes
Semi major axis: 7398 km
RCS: 0.017 m2 (small)
Launch date: June 4, 1981
Source: Commonwealth of Independent States (former USSR) (CIS)
Launch site: PLESETSK MISSILE AND SPACE COMPLEX (PKMTR)

Note: This is SATELLITE DEBRIS
Your satellite tracking list
Your tracking list is empty




NASA's NSSDC Master Catalog

Two Line Element Set (TLE):
1 14440U 81053JG  26043.16708204  .00000817  00000-0  95972-3 0  9994
2 14440  82.9196 287.6862 0114305  32.6613 128.0166 13.64327152196525
Source of the keplerian elements: AFSPC